Hourly Data Report for November 07, 2020

L'ASSOMPTION
QUEBEC
Current Station Operator: ECCC - MSC

45°48'34.000" N
73°26'05.000" W
21.00 m
7014160
71524
WEW

Download Data

Hourly Data (November 2020)
Hourly Data Report for November 7, 2020
TIME
LST
Temp Definition
°C
Dew Point Definition
°C
Rel Hum Definition
%
Precip. Amount Definition
mm

Wind Dir Definition
10's deg

Wind Spd Definition
km/h
Visibility Definition
km
Stn Press Definition
kPa
Hmdx Definition


Wind Chill Definition


Weather Definition


00:00 12.5 8.8 78 0.0 24 10   101.51     LegendNANA
01:00 11.8 8.5 80 0.0 24 8   101.54     LegendNANA
02:00 11.9 8.7 81 0.0 23 8   101.60     LegendNANA
03:00 10.1 7.8 86 0.0 22 10   101.66     LegendNANA
04:00 9.6 7.8 88 0.0 22 6   101.70     LegendNANA
05:00 9.2 7.7 90 0.0 22 8   101.76     LegendNANA
06:00 8.5 7.3 92 0.0 21 6   101.80     LegendNANA
07:00 8.1 7.2 94 0.0 22 6   101.83     LegendNANA
08:00 10.3 8.3 87 0.0 23 5   101.87     LegendNANA
09:00 12.4 8.7 79 0.0 23 9   101.85     LegendNANA
10:00 14.1 9.1 72 0.0 24 14   101.84     LegendNANA
11:00 15.6 9.0 65 0.0 23 17   101.79     LegendNANA
12:00 16.8 9.4 62 0.0 23 14   101.69     LegendNANA
13:00 17.9 10.0 60 0.0 23 14   101.67     LegendNANA
14:00 18.4 10.1 59 0.0 23 11   101.64     LegendNANA
15:00 18.2 10.5 61 0.0 25 12   101.61     LegendNANA
16:00 17.4 10.5 64 0.0 26 3   101.68     LegendNANA
17:00 14.7 10.3 75 0.0 22 2   101.69     LegendNANA
18:00 11.9 9.4 85 0.0 13 3   101.78     LegendNANA
19:00 10.4 8.9 90 0.0 7 2   101.84     LegendNANA
20:00 10.2 8.8 91 0.0   0   101.88     LegendNANA
21:00 9.6 8.1 90 0.0 20 3   101.93     LegendNANA
22:00 10.8 8.9 88 0.0 20 5   101.93     LegendNANA
23:00 11.5 8.7 83 0.0 20 8   101.95     LegendNANA

Notes on Data Quality.

Legend

  • E = Estimated
  • M = Missing
  • NA = Not Available*
  • [empty] = Indicates an unobserved value
Date modified: